IRIDIUM 33 DEB, 34833

Orbit data source: Space-Track

IRIDIUM 33 DEB, 34833 is space debris in LEO originally from a launch on Sun, 14 Sep 1997 UTC launched from the Tyuratam Missile And Space Complex (TTMTR). The debris from Iridium 33, an American commercial communications satellite, has been tracked extensively since its accidental collision with the defunct Russian satellite Cosmos 2251 in 2009. This event, occurring at high speed in low Earth orbit (LEO), generated thousands of pieces of space debris, significantly increasing the risk of further collisions. The Iridium 33 debris cloud has impacted space traffic management and orbital debris mitigation strategies, making it a subject of ongoing study in space situational awareness.

Loading next visibility...
Identifier
34833, 1997-051MH
Orbit
LEO
Country
Flag of USUS
Related business
Manufacturer
Unknown
Mission
Spacecraft
Bus & Motor
Unknown
Mass
Unknown
Launch date (UTC)
1997-09-14 (28 years ago)
Launch vehicle
Unknown
Launch site
Tyuratam Missile And Space Complex (TTMTR)
Object type
Payload
Rocket body
Debris
Shape & HBR
Unknown shape, 0.1 m
Radar Cross Section
Small (<0.1 m²)

Expand to show TLE details & history
Last TLE update: 20 hours ago

TLE from 20 hours ago
0 IRIDIUM 33 DEB
1 34833U 97051MH  26037.43120113  .00005019  00000-0  12144-2 0  9995
2 34833  86.3930  26.9733 0016886 271.4610 240.6298 14.52814855885232
Epoch: 2026-02-06T10:20Z
TLE epoch observation values (Epoch: 2026-02-06T10:20:55.777Z)
Latitude
28.05923°
Longitude
-86.74353°
Altitude
725.961 km
Speed
7.492 km/s
True Right ascension
13h 40m 13s
True Declination
27° 54' 58"
Sunlit
Object was in full shadow at epoch
Visualization orbit readout
Latitude
Unknown
Longitude
Unknown
Altitude
Unknown
Speed
Unknown
Apparent Right ascension
Unknown
Apparent Declination
Unknown
Sunlit
N/A
Visualization observer readout
Local Sidereal Time
08:00:00
Azimuth
Unknown
Elevation
Unknown
Doppler factor
Unknown
Orbital elements
Apogee altitude
725.383 km
Perigee altitude
701.433 km
Semi-major axis
7,091.545 km
Eccentricity
0.00169
Inclination
86.393°
RAAN
26.9733°
Arg. of periapsis
271.461°
True anomaly
240.46135°
Mean anomaly
240.6298°
Eccentric anomaly
240.54556°
Mean motion
3.63439 °/min
Orbital period
99.05 mins
BSTAR
0.0012144
Loading maneuver chart data...
Computing Atmospheric mass density...

Documentation

Showing up to 5 results
|